Location: Dehesa de la Cepeda
(40.6574°N, 4.3013°W)
Time: 02:06:17
(UTC+00:00)

Courier 1B - Pass Details

Date: 06 August 2021
Orbit: 963 x 1209 km, 28.3° (Epoch: 17 September)

Event Time Altitude Azimuth Distance (km) Brightness Sun altitude
Rises 19:48:21 0° 255° (WSW) 4,093 11.6 -4.6°
Reaches altitude 10° 19:51:33 10° 246° (WSW) 3,139 10.8 -5.1°
Maximum altitude 19:58:14 31° 187° (S) 1,960 8.9 -6.3°
Drops below altitude 10° 20:04:50 10° 129° (SE) 3,102 9.5 -7.4°
Enters shadow 20:05:21 - 127° (SE) 3,248 9.6 -7.4°
Sets 20:07:59 0° 119° (ESE) 4,038 - -7.9°
